Location: Audinghen
(50.8518°N, 1.6129°E)
Time: 17:23:55
(UTC+00:00)

Cosmos 1544 - Pass Details

Date: 07 August 2020
Orbit: 471 x 491 km, 82.5° (Epoch: 24 September)

Event Time Altitude Azimuth Distance (km) Brightness Sun altitude
Exits shadow 00:44:50 44° 291° (WNW) 681 3.8 -22.1°
Drops below altitude 10° 00:48:16 10° 359° (N) 1,684 6.9 -22.0°
Sets 00:50:28 0° 6° (N) 2,574 8.2 -21.9°
